{"data":{"norad_id":53867,"intl_designator":"2022-114BB","name":"STARLINK-4793","alt_names":[],"object_type":"PAYLOAD","status":"ACTIVE","operator":null,"country":"US","launch_date":"2022-09-19","launch_site_code":"AFETR","launch_vehicle":null,"mission":null,"orbit_class":"UNKNOWN","rcs_meters":null,"size_class":null,"mass_kg":null,"dimensions":null,"purposes":["comms"],"wikipedia_slug":null,"has_3d_model":false,"image_url":null,"decayed_at":null,"tle_current":{"epoch":"2026-05-25T04:00:03.998880Z","epoch_age_seconds":63819,"freshness":"FRESH","line1":"1 53867U 22114BB  26145.16671295 -.00689844  00000+0 -22850-1 0  9992","line2":"2 53867  53.2168 285.9341 0000747  72.9328  57.3150 15.33272959  5728","mean_motion":15.33272959,"eccentricity":7.47e-5,"inclination_deg":53.2168,"raan_deg":285.9341,"arg_perigee_deg":72.9328,"mean_anomaly_deg":57.315,"bstar":-0.02285,"rev_number":572,"period_min":93.91674140912,"perigee_km":465.54383416516,"apogee_km":466.5663564642,"semimajor_km":6844.1920953147,"source":"CELESTRAK","updated_at":"2026-05-25T13:38:17.579914Z"}}}